Miami, FL

10:43 PM EDT on June 28, 2017 (GMT -0400)
Miami International

Weather History for KMIA - October, 2013

Change the Weather History Date:

Tuesday, October 15, 2013

  Actual Average Record
Temperature  
Mean Temperature 82 °F 80 °F  
Max Temperature 89 °F 86 °F 91 °F (1954)
Min Temperature 74 °F 74 °F 58 °F (1896)
Degree Days  
Heating Degree Days 0 0  
Month to date heating degree days 0 0  
Since 1 July heating degree days 0 0  
Cooling Degree Days 17 15  
Month to date cooling degree days 245 242  
Year to date cooling degree days 3923 3854  
Growing Degree Days 31 (Base 50)    
Moisture  
Dew Point 67 °F    
Average Humidity 65    
Maximum Humidity 87    
Minimum Humidity 43    
Precipitation  
Precipitation 0.00 in 0.20 in 6.81 in (1999)
Month to date precipitation 5.65 3.79  
Year to date precipitation 58.80 54.05  
Snow  
Snow 0.00 in - - ()
Month to date snowfall 0.0  
Since 1 July snowfall 0.0  
Since 1 September snowfall 0.0  
Snow Depth 0.00 in    
Sea Level Pressure  
Sea Level Pressure 29.93 in    
Wind  
Wind Speed 6 mph (NE)    
Max Wind Speed 16 mph    
Max Gust Speed 29 mph    
Visibility 10 miles    
Events      
T = Trace of Precipitation, MM = Missing Value Source: NWS Daily Summary

Daily Weather History Graph

Daily Weather History Graph

Search for Another Location

Airport or City:

Trip Planner

Search our weather history database for the weather conditions in past years. The results will help you decide how hot, cold, wet, or windy it might be!

Date:

Astronomy

Oct. 15, 2013 Rise Set
Actual Time 7:20 AM EDT 6:53 PM EDT
Civil Twilight 6:56 AM EDT 7:16 PM EDT
Nautical Twilight 6:30 AM EDT 7:43 PM EDT
Astronomical Twilight 6:03 AM EDT 8:09 PM EDT
Moon 4:41 PM EDT (10/15) 4:00 AM EDT (10/15)
Length of Visible Light 12h 19m
Length of Day
11h 33m
Waxing Gibbous, 87% of the Moon is Illuminated
Oct 15
Waxing Gibbous
Oct 18
Full
Oct 26
Last Quarter
Nov 3
New
Nov 10
First Quarter

Hourly Weather History & Observations

Time (EDT) Temp. Heat Index Dew Point Humidity Pressure Visibility Wind Dir Wind Speed Gust Speed Precip Events Conditions
12:53 AM 77.0 °F - 66.0 °F 69% 29.96 in 10.0 mi Calm Calm - N/A   Partly Cloudy
1:53 AM 77.0 °F - 66.0 °F 69% 29.95 in 10.0 mi Calm Calm - N/A   Scattered Clouds
2:53 AM 75.0 °F - 66.9 °F 76% 29.93 in 10.0 mi NNW 3.5 mph - N/A   Scattered Clouds
3:53 AM 75.0 °F - 68.0 °F 79% 29.92 in 10.0 mi NNW 3.5 mph - N/A   Scattered Clouds
4:53 AM 75.0 °F - 69.1 °F 82% 29.91 in 10.0 mi NNW 3.5 mph - N/A   Mostly Cloudy
5:53 AM 73.9 °F - 69.1 °F 85% 29.91 in 10.0 mi Calm Calm - N/A   Scattered Clouds
6:53 AM 73.9 °F - 69.1 °F 85% 29.93 in 10.0 mi NW 4.6 mph - N/A   Partly Cloudy
7:53 AM 75.0 °F - 70.0 °F 84% 29.94 in 10.0 mi Variable 4.6 mph - N/A   Scattered Clouds
8:53 AM 78.1 °F - 70.0 °F 76% 29.96 in 10.0 mi North 4.6 mph - N/A   Scattered Clouds
9:53 AM 81.0 °F 84.1 °F 69.1 °F 67% 29.97 in 10.0 mi North 5.8 mph - N/A   Partly Cloudy
10:51 AM 80.6 °F 83.9 °F 69.8 °F 70% 29.96 in 10.0 mi Variable 3.5 mph - N/A   Mostly Cloudy
10:53 AM 81.0 °F 84.1 °F 69.1 °F 67% 29.96 in 10.0 mi NNE 5.8 mph - N/A   Mostly Cloudy
11:51 AM 86.0 °F 88.2 °F 66.2 °F 51% 29.95 in 10.0 mi ENE 6.9 mph - N/A   Scattered Clouds
11:53 AM 86.0 °F 89.4 °F 68.0 °F 55% 29.96 in 10.0 mi Variable 4.6 mph - N/A   Scattered Clouds
12:53 PM 87.1 °F 89.2 °F 66.0 °F 49% 29.93 in 10.0 mi NE 6.9 mph - N/A   Scattered Clouds
1:53 PM 88.0 °F 88.7 °F 63.0 °F 43% 29.91 in 10.0 mi ENE 11.5 mph - N/A   Scattered Clouds
2:53 PM 88.0 °F 88.4 °F 62.1 °F 42% 29.89 in 10.0 mi East 10.4 mph 16.1 mph N/A   Scattered Clouds
3:53 PM 86.0 °F 88.2 °F 66.0 °F 51% 29.88 in 10.0 mi East 11.5 mph - N/A   Mostly Cloudy
4:53 PM 84.9 °F 86.1 °F 64.0 °F 49% 29.88 in 10.0 mi ENE 11.5 mph - N/A   Mostly Cloudy
5:53 PM 82.9 °F 84.4 °F 64.0 °F 53% 29.89 in 10.0 mi ENE 11.5 mph - N/A   Mostly Cloudy
6:53 PM 81.0 °F 83.0 °F 66.0 °F 60% 29.90 in 10.0 mi ENE 11.5 mph - N/A   Scattered Clouds
7:53 PM 80.1 °F 82.3 °F 66.9 °F 64% 29.91 in 10.0 mi NE 8.1 mph - N/A   Scattered Clouds
8:53 PM 80.1 °F 82.3 °F 66.9 °F 64% 29.93 in 10.0 mi NE 5.8 mph - N/A   Clear
9:53 PM 79.0 °F - 66.9 °F 66% 29.95 in 10.0 mi NE 4.6 mph - N/A   Partly Cloudy
10:53 PM 79.0 °F - 68.0 °F 69% 29.96 in 10.0 mi Calm Calm - N/A   Partly Cloudy
11:53 PM 78.1 °F - 68.0 °F 71% 29.95 in 10.0 mi Calm Calm - N/A   Partly Cloudy